Location: Chuathbaluk
(61.5726°N, 159.2454°W)
Time: 14:43:31
(UTC+00:00)

SR - Pass Details

Date: 03 December 2020
Orbit: 575 x 880 km, 66.7° (Epoch: 17 January)

Event Time Altitude Azimuth Distance (km) Brightness Sun altitude
Rises 03:03:45 0° 157° (SSE) 2,861 ? -10.1°
Reaches altitude 10° 03:07:33 10° 123° (ESE) 2,023 ? -10.5°
Maximum altitude 03:08:56 11° 106° (ESE) 1,964 ? -10.6°
Enters shadow 03:09:56 11° 93° (E) 2,027 ? -10.7°
